Вернуться в каталог

PO-101

DIWATA 2B

АктивенЛюбительское радиоSSO
NORAD 43678·PAYLOAD·🇵🇭 Philippines

Запущен Oct 29, 2018 с Tanegashima Space Center

Loading…

Ближайшие Пролёты (ближайшие 24 часа)

TLE

СвежийSource: AMSAT

Эпоха: Sep 14, 2026, 14:08 UTC

1 43678U 18084H   26257.58892425  .00001270  00000-0  10533-3 0  9999
2 43678  98.1170  97.7328 0011557 228.5182 131.5049 15.00725797429628

Отслеживайте PO-101 в реальном времени с AllMySat

Download on the App Store